| time (UTC) | temp F | wind direction | speed MPH | gust MPH | rain 1hr in | rain 24hr in | rain mn in | humidity % | barometer mb |
| 20260506213404 | 57 | 179 | 5.0 | 16.0 | 0.00 | 0.19 | 0.19 | 96 | 1023.9 |
| 20260506212404 | 57 | 205 | 6.0 | 20.0 | 0.00 | 0.19 | 0.19 | 96 | 1023.9 |
| 20260506211404 | 57 | 205 | 6.0 | 13.0 | 0.00 | 0.19 | 0.19 | 96 | 1023.9 |
| 20260506210404 | 58 | 203 | 6.0 | 21.0 | 0.00 | 0.19 | 0.19 | 96 | 1023.9 |
| 20260506205403 | 58 | 208 | 10.0 | 17.0 | 0.00 | 0.19 | 0.19 | 96 | 1023.9 |
| 20260506204403 | 58 | 193 | 8.0 | 20.0 | 0.01 | 0.19 | 0.19 | 96 | 1023.9 |
| 20260506203404 | 58 | 204 | 7.0 | 17.0 | 0.02 | 0.19 | 0.19 | 96 | 1023.9 |
| 20260506202404 | 58 | 163 | 13.0 | 15.0 | 0.03 | 0.19 | 0.19 | 96 | 1023.9 |
| 20260506201404 | 58 | 199 | 7.0 | 17.0 | 0.05 | 0.19 | 0.19 | 96 | 1023.9 |
| 20260506200403 | 58 | 190 | 7.0 | 17.0 | 0.06 | 0.19 | 0.19 | 96 | 1023.9 |
| 20260506195403 | 58 | 208 | 6.0 | 13.0 | 0.07 | 0.19 | 0.19 | 96 | 1023.9 |
| 20260506194404 | 58 | 199 | 6.0 | 17.0 | 0.06 | 0.18 | 0.18 | 96 | 1023.9 |
| 20260506193404 | 58 | 202 | 6.0 | 16.0 | 0.06 | 0.17 | 0.17 | 96 | 1023.9 |
| 20260506192404 | 58 | 160 | 10.0 | 13.0 | 0.05 | 0.16 | 0.16 | 96 | 1023.9 |
| 20260506191403 | 58 | 192 | 6.0 | 14.0 | 0.04 | 0.14 | 0.14 | 96 | 1023.9 |
| 20260506190403 | 58 | 187 | 4.0 | 14.0 | 0.04 | 0.13 | 0.13 | 95 | 1023.9 |
| 20260506185403 | 58 | 165 | 5.0 | 16.0 | 0.04 | 0.12 | 0.12 | 95 | 1023.9 |
| 20260506184403 | 59 | 211 | 7.0 | 15.0 | 0.05 | 0.12 | 0.12 | 95 | 1023.9 |
| 20260506183404 | 59 | 183 | 9.0 | 12.0 | 0.06 | 0.11 | 0.11 | 95 | 1023.9 |
| 20260506182403 | 59 | 183 | 5.0 | 9.0 | 0.07 | 0.11 | 0.11 | 95 | 1023.9 |
| 20260506181404 | 59 | 178 | 5.0 | 10.0 | 0.08 | 0.10 | 0.10 | 95 | 1023.9 |
| 20260506180404 | 59 | 194 | 3.0 | 10.0 | 0.08 | 0.09 | 0.09 | 94 | 1023.9 |
| 20260506175403 | 59 | 182 | 5.0 | 12.0 | 0.08 | 0.08 | 0.08 | 94 | 1023.9 |
| 20260506174404 | 59 | 182 | 3.0 | 10.0 | 0.07 | 0.07 | 0.07 | 94 | 1023.9 |
| 20260506173403 | 59 | 193 | 3.0 | 10.0 | 0.05 | 0.05 | 0.05 | 93 | 1023.9 |
| 20260506172404 | 60 | 207 | 3.0 | 9.0 | 0.04 | 0.04 | 0.04 | 92 | 1023.9 |
| 20260506171404 | 60 | 188 | 3.0 | 9.0 | 0.02 | 0.02 | 0.02 | 90 | 1023.9 |
| 20260506170403 | 60 | 189 | 4.0 | 13.0 | 0.01 | 0.01 | 0.01 | 89 | 1023.9 |
| 20260506165403 | 61 | 193 | 3.0 | 10.0 | 0.00 | 0.00 | 0.00 | 86 | 1023.9 |
| 20260506164403 | 61 | 215 | 4.0 | 15.0 | 0.00 | 0.00 | 0.00 | 84 | 1023.9 |
| 20260506163403 | 62 | 204 | 5.0 | 13.0 | 0.00 | 0.00 | 0.00 | 83 | 1023.9 |
| 20260506162403 | 63 | 190 | 7.0 | 18.0 | 0.00 | 0.00 | 0.00 | 80 | 1023.9 |
| 20260506161404 | 63 | 194 | 7.0 | 15.0 | 0.00 | 0.00 | 0.00 | 79 | 1023.9 |
| 20260506160404 | 63 | 198 | 6.0 | 14.0 | 0.00 | 0.00 | 0.00 | 79 | 1023.9 |
| 20260506155404 | 63 | 192 | 6.0 | 16.0 | 0.00 | 0.00 | 0.00 | 80 | 1023.9 |
| 20260506154404 | 63 | 202 | 6.0 | 13.0 | 0.00 | 0.00 | 0.00 | 80 | 1023.9 |
| 20260506153403 | 63 | 223 | 5.0 | 12.0 | 0.00 | 0.00 | 0.00 | 80 | 1023.9 |
| 20260506152403 | 63 | 213 | 6.0 | 12.0 | 0.00 | 0.00 | 0.00 | 80 | 1023.9 |
| 20260506151404 | 63 | 238 | 4.0 | 10.0 | 0.00 | 0.00 | 0.00 | 80 | 1023.9 |
| 20260506150404 | 63 | 201 | 7.0 | 14.0 | 0.00 | 0.00 | 0.00 | 80 | 1023.9 |
| 20260506145404 | 63 | 187 | 5.0 | 17.0 | 0.00 | 0.00 | 0.00 | 80 | 1023.9 |
| 20260506144403 | 63 | 168 | 6.0 | 13.0 | 0.00 | 0.00 | 0.00 | 80 | 1023.9 |
| 20260506143403 | 63 | 136 | 3.0 | 20.0 | 0.00 | 0.00 | 0.00 | 79 | 1023.9 |
| 20260506142404 | 64 | 170 | 9.0 | 17.0 | 0.00 | 0.00 | 0.00 | 78 | 1023.9 |
| 20260506141404 | 64 | 216 | 6.0 | 20.0 | 0.00 | 0.00 | 0.00 | 77 | 1023.9 |
| 20260506140404 | 65 | 198 | 9.0 | 21.0 | 0.00 | 0.00 | 0.00 | 76 | 1023.9 |
| 20260506135404 | 64 | 210 | 5.0 | 13.0 | 0.00 | 0.00 | 0.00 | 79 | 1023.9 |
| 20260506134403 | 63 | 196 | 7.0 | 15.0 | 0.00 | 0.00 | 0.00 | 79 | 1023.9 |
| 20260506133403 | 63 | 205 | 3.0 | 12.0 | 0.00 | 0.00 | 0.00 | 80 | 1023.9 |
| 20260506132403 | 63 | 168 | 2.0 | 12.0 | 0.00 | 0.00 | 0.00 | 81 | 1023.9 |
| 20260506131404 | 62 | 205 | 6.0 | 12.0 | 0.00 | 0.00 | 0.00 | 83 | 1023.9 |
| 20260506130403 | 61 | 211 | 3.0 | 17.0 | 0.00 | 0.00 | 0.00 | 84 | 1023.9 |
| 20260506125404 | 60 | 213 | 4.0 | 15.0 | 0.00 | 0.00 | 0.00 | 85 | 1023.9 |
| 20260506124404 | 60 | 194 | 7.0 | 12.0 | 0.00 | 0.00 | 0.00 | 85 | 1023.9 |
| 20260506123403 | 60 | 236 | 5.0 | 15.0 | 0.00 | 0.00 | 0.00 | 85 | 1023.9 |
| 20260506122404 | 60 | 198 | 3.0 | 14.0 | 0.00 | 0.00 | 0.00 | 86 | 1023.9 |
| 20260506121403 | 59 | 186 | 5.0 | 12.0 | 0.00 | 0.00 | 0.00 | 86 | 1023.9 |
| 20260506120404 | 59 | 170 | 3.0 | 10.0 | 0.00 | 0.00 | 0.00 | 87 | 1023.9 |
| 20260506115404 | 58 | 228 | 3.0 | 10.0 | 0.00 | 0.00 | 0.00 | 88 | 1023.9 |
| 20260506114404 | 58 | 192 | 7.0 | 13.0 | 0.00 | 0.00 | 0.00 | 88 | 1023.9 |
| 20260506113404 | 58 | 157 | 2.0 | 15.0 | 0.00 | 0.00 | 0.00 | 88 | 1023.9 |
| 20260506112404 | 57 | 175 | 7.0 | 16.0 | 0.00 | 0.00 | 0.00 | 89 | 1023.9 |
| 20260506111404 | 57 | 182 | 6.0 | 16.0 | 0.00 | 0.00 | 0.00 | 89 | 1023.9 |
| 20260506110403 | 56 | 193 | 5.0 | 12.0 | 0.00 | 0.00 | 0.00 | 89 | 1023.9 |
| 20260506105403 | 56 | 179 | 2.0 | 17.0 | 0.00 | 0.00 | 0.00 | 89 | 1023.9 |
| 20260506104403 | 56 | 196 | 3.0 | 17.0 | 0.00 | 0.00 | 0.00 | 89 | 1023.9 |
| 20260506103404 | 56 | 186 | 6.0 | 13.0 | 0.00 | 0.00 | 0.00 | 89 | 1023.9 |
| 20260506102404 | 55 | 169 | 5.0 | 12.0 | 0.00 | 0.00 | 0.00 | 90 | 1023.9 |
| 20260506101404 | 55 | 160 | 3.0 | 16.0 | 0.00 | 0.00 | 0.00 | 89 | 1023.9 |
| 20260506100404 | 55 | 144 | 3.0 | 12.0 | 0.00 | 0.00 | 0.00 | 89 | 1023.9 |
| 20260506095404 | 55 | 203 | 4.0 | 12.0 | 0.00 | 0.00 | 0.00 | 89 | 1023.9 |
| 20260506094404 | 55 | 191 | 6.0 | 12.0 | 0.00 | 0.00 | 0.00 | 89 | 1023.9 |
| 20260506093404 | 55 | 189 | 6.0 | 12.0 | 0.00 | 0.00 | 0.00 | 89 | 1023.9 |
| 20260506092403 | 55 | 189 | 3.0 | 12.0 | 0.00 | 0.00 | 0.00 | 89 | 1023.9 |
| 20260506091404 | 55 | 159 | 5.0 | 13.0 | 0.00 | 0.00 | 0.00 | 88 | 1023.9 |
| 20260506090405 | 56 | 178 | 3.0 | 12.0 | 0.00 | 0.00 | 0.00 | 88 | 1023.9 |
| 20260506085404 | 55 | 171 | 6.0 | 12.0 | 0.00 | 0.00 | 0.00 | 88 | 1023.9 |
| 20260506084404 | 55 | 170 | 6.0 | 13.0 | 0.00 | 0.00 | 0.00 | 88 | 1023.9 |
| 20260506083403 | 55 | 187 | 4.0 | 13.0 | 0.00 | 0.00 | 0.00 | 87 | 1023.9 |
| 20260506082403 | 55 | 192 | 5.0 | 8.0 | 0.00 | 0.00 | 0.00 | 87 | 1023.9 |
| 20260506081403 | 55 | 168 | 2.0 | 10.0 | 0.00 | 0.00 | 0.00 | 87 | 1023.9 |
| 20260506080404 | 55 | 161 | 1.0 | 7.0 | 0.00 | 0.00 | 0.00 | 86 | 1023.9 |
| 20260506073404 | 56 | 198 | 2.0 | 5.0 | 0.00 | 0.00 | 0.00 | 83 | 1023.9 |
| 20260506072404 | 56 | 169 | 3.0 | 9.0 | 0.00 | 0.00 | 0.00 | 83 | 1023.9 |
| 20260506071403 | 57 | 225 | 3.0 | 7.0 | 0.00 | 0.00 | 0.00 | 82 | 1023.9 |
| 20260506070404 | 57 | 191 | 2.0 | 12.0 | 0.00 | 0.00 | 0.00 | 81 | 1023.9 |